Latest Weather Observations for Toowoomba

IDQ60901

Issued at 4:15 pm EST Wednesday 22 October 2014 (issued every 10 minutes, with the page automatically refreshed every 10 minutes)

About weather observations | Map of Brisbane area stations | Latest observations for Brisbane area | Other Formats
Station Details ID: 041529 Name: TOOWOOMBA AIRPORT Lat: -27.54 Lon: 151.91 Height: 640.9 m
Data from the previous 72 hours. | See also: Recent months at Toowoomba
Date/Time
EST
Tmp

°C
App
Tmp
°C
Dew
Point
°C
Rel
Hum
%
Delta-T

°C
Wind Press
QNH
hPa
Press
MSL
hPa
Rain
since
9 am
mm
Dir
 
Spd
km/h
Gust
km/h
Spd
kts
Gust
kts
22/04:00pm 22.2 17.4 7.2 38 8.0 E 22 30 12 16 1023.4 - 0.0
22/03:30pm 21.8 17.5 6.9 38 7.9 ESE 19 30 10 16 1023.4 - 0.0
22/03:00pm 21.9 16.3 7.3 39 7.7 E 26 35 14 19 1023.4 1021.2 0.0
22/02:30pm 22.6 17.9 7.6 38 8.0 ESE 22 30 12 16 1023.5 - 0.0
22/02:00pm 22.2 17.6 8.0 40 7.7 E 22 33 12 18 1023.8 - 0.0
22/01:30pm 22.2 17.9 8.0 40 7.7 E 20 32 11 17 1024.4 - 0.0
22/01:00pm 21.3 17.1 8.2 43 7.1 E 20 30 11 16 1024.7 - 0.0
22/12:30pm 21.0 16.5 8.6 45 6.7 E 22 32 12 17 1025.1 - 0.0
22/12:00pm 19.8 15.6 8.2 47 6.2 ESE 20 30 11 16 1025.8 1023.6 0.0
22/11:30am 20.5 16.5 10.3 52 5.7 ENE 22 30 12 16 1026.2 - 0.0
22/11:00am 19.3 14.1 8.9 51 5.6 E 26 37 14 20 1026.5 - 0.0
22/10:30am 18.4 12.8 8.9 54 5.1 E 28 37 15 20 1026.8 - 0.0
22/10:00am 18.4 12.2 9.2 55 5.0 E 32 41 17 22 1027.1 - 0.0
22/09:30am 17.8 12.5 9.7 59 4.4 E 28 41 15 22 1027.3 - 0.0
22/09:00am 17.7 11.7 10.1 61 4.1 E 32 43 17 23 1027.4 1025.2 0.0
22/08:30am 16.0 9.3 9.7 66 3.4 E 35 44 19 24 1027.2 - 0.0
22/08:00am 15.7 9.2 10.2 70 3.0 E 35 44 19 24 1027.1 - 0.0
22/07:30am 14.7 7.9 10.5 76 2.3 E 37 50 20 27 1027.0 - 0.0
22/07:00am 13.2 6.5 9.8 80 1.8 E 35 50 19 27 1026.5 - 0.0
22/06:30am 13.4 7.4 10.2 81 1.7 E 32 41 17 22 1026.4 - 0.0
22/06:00am 12.3 7.3 9.5 83 1.5 E 26 33 14 18 1026.4 1024.2 0.0
22/05:30am 11.5 5.7 9.4 87 1.1 E 30 35 16 19 1026.0 - 0.0
22/05:00am 11.6 5.7 9.2 85 1.2 E 30 39 16 21 1025.8 - 0.0
22/04:30am 11.5 5.6 9.1 85 1.2 E 30 37 16 20 1025.6 - 0.0
22/04:00am 11.5 5.2 9.1 85 1.2 E 32 43 17 23 1025.6 - 0.0
22/03:30am 11.5 5.2 8.9 84 1.3 E 32 39 17 21 1025.5 - 0.0
22/03:00am 11.6 5.1 9.0 84 1.3 E 33 39 18 21 1025.6 1023.4 0.0
22/02:30am 11.6 5.1 8.8 83 1.4 E 33 43 18 23 1025.9 - 0.0
22/02:00am 11.7 5.2 8.9 83 1.4 E 33 43 18 23 1026.2 - 0.0
22/01:30am 11.9 5.1 9.3 84 1.4 E 35 43 19 23 1026.3 - 0.0
22/01:00am 12.1 5.3 9.3 83 1.5 E 35 43 19 23 1026.7 - 0.0
22/12:30am 12.3 5.9 9.5 83 1.5 E 33 43 18 23 1027.4 - 0.0
22/12:00am 12.6 5.8 9.4 81 1.7 E 35 43 19 23 1027.7 1025.5 0.0
 
Date/Time
EST
Tmp

°C
App
Tmp
°C
Dew
Point
°C
Rel
Hum
%
Delta-T

°C
Wind Press
QNH
hPa
Press
MSL
hPa
Rain
since
9 am
mm
Dir
 
Spd
km/h
Gust
km/h
Spd
kts
Gust
kts
21/11:30pm 12.8 6.4 9.4 80 1.8 E 33 44 18 24 1028.0 - 0.0
21/11:00pm 13.1 6.9 9.5 79 1.9 E 32 41 17 22 1028.4 - 0.0
21/10:30pm 13.4 7.1 9.6 78 2.0 E 33 43 18 23 1028.4 - 0.0
21/10:00pm 13.8 6.8 9.8 77 2.1 E 37 50 20 27 1028.7 - 0.0
21/09:30pm 14.2 7.5 9.8 75 2.3 E 35 43 19 23 1028.7 - 0.0
21/09:00pm 14.7 8.0 9.5 71 2.8 E 35 44 19 24 1028.7 1026.5 0.0
21/08:30pm 15.1 8.0 9.5 69 3.0 E 37 48 20 26 1028.2 - 0.0
21/08:00pm 15.7 8.7 9.8 68 3.2 E 37 48 20 26 1028.0 - 0.0
21/07:30pm 16.3 10.2 9.7 65 3.6 E 32 41 17 22 1027.9 - 0.0
21/07:00pm 16.7 10.5 9.9 64 3.7 E 33 43 18 23 1027.8 - 0.0
21/06:30pm 17.2 11.6 10.3 64 3.8 E 30 39 16 21 1027.4 - 0.0
21/06:00pm 17.8 12.6 10.4 62 4.1 E 28 37 15 20 1027.2 1025.0 0.0
21/05:30pm 18.8 12.4 10.6 59 4.6 E 35 46 19 25 1026.7 - 0.0
21/05:00pm 20.2 14.1 10.3 53 5.5 E 33 44 18 24 1026.4 - 0.0
21/04:30pm 21.3 15.1 10.2 49 6.2 E 33 44 18 24 1026.0 - 0.0
21/04:00pm 21.7 15.7 10.2 48 6.4 E 32 43 17 23 1025.9 - 0.0
21/03:30pm 22.0 16.9 10.5 48 6.5 E 28 39 15 21 1025.9 - 0.0
21/03:00pm 21.9 16.7 10.4 48 6.4 E 28 39 15 21 1026.1 1023.9 0.0
21/02:30pm 21.6 16.9 10.7 50 6.2 E 26 37 14 20 1026.3 - 0.0
21/02:00pm 22.4 18.3 11.5 50 6.3 NE 24 35 13 19 1026.7 - 0.0
21/01:30pm 21.8 17.6 11.2 51 6.1 E 24 33 13 18 1027.2 - 0.0
21/01:00pm 21.8 17.8 11.8 53 5.8 E 24 32 13 17 1027.5 - 0.0
21/12:30pm 21.0 16.7 11.9 56 5.2 E 26 35 14 19 1028.0 - 0.0
21/12:00pm 20.2 16.1 11.4 57 5.0 E 24 32 13 17 1028.4 1026.3 0.0
21/11:30am 20.1 16.1 11.8 59 4.7 E 24 32 13 17 1028.9 - 0.0
21/11:00am 20.4 16.5 12.1 59 4.8 E 24 35 13 19 1029.1 - 0.0
21/10:30am 19.0 14.5 12.5 66 3.7 E 28 39 15 21 1029.2 - 0.0
21/10:00am 18.4 13.7 11.9 66 3.7 E 28 39 15 21 1029.2 - 0.0
21/09:30am 18.2 11.9 12.4 69 3.3 E 37 54 20 29 1028.9 - 0.0
21/09:00am 18.0 12.3 12.9 72 2.9 E 35 44 19 24 1028.8 1026.6 0.0
21/08:30am 16.9 10.2 12.4 75 2.6 E 39 48 21 26 1028.5 - 0.0
21/08:00am 16.4 11.0 12.8 79 2.1 E 33 44 18 24 1028.5 - 0.0
21/07:36am 15.9 9.8 13.0 83 1.7 E 37 48 20 26 1028.1 - 0.0
21/07:30am 15.7 9.5 12.8 83 1.7 E 37 48 20 26 1028.0 - 0.0
21/07:00am 15.3 9.1 12.8 85 1.4 E 37 50 20 27 1027.8 - 0.0
21/06:57am 15.4 9.6 12.7 84 1.5 E 35 44 19 24 1027.8 - 0.0
21/06:30am 15.0 8.8 12.7 86 1.3 E 37 48 20 26 1027.4 - 0.0
21/06:00am 14.7 9.4 12.6 87 1.2 E 32 44 17 24 1027.2 1025.0 0.0
21/05:59am 14.7 9.4 12.6 87 1.2 E 32 44 17 24 1027.2 - 0.0
21/05:30am 14.3 9.3 12.3 88 1.1 ESE 30 39 16 21 1027.0 - 0.0
21/05:00am 14.5 9.9 12.4 87 1.2 ESE 28 37 15 20 1027.0 - 0.0
21/04:30am 14.3 10.4 12.2 87 1.2 E 24 33 13 18 1026.6 - 0.0
21/04:00am 14.3 10.0 12.2 87 1.2 E 26 37 14 20 1026.5 - 0.0
21/03:30am 14.4 9.0 12.1 86 1.3 E 32 43 17 23 1026.1 - 0.0
21/03:00am 14.4 8.4 12.1 86 1.3 E 35 44 19 24 1026.0 1023.8 0.0
21/02:58am 14.4 8.4 12.1 86 1.3 E 35 44 19 24 1026.1 - 0.0
21/02:30am 14.4 8.3 11.9 85 1.4 E 35 44 19 24 1026.1 - 0.0
21/02:14am 14.3 8.2 11.8 85 1.4 E 35 54 19 29 1026.2 - 0.0
21/02:00am 14.4 7.9 11.7 84 1.5 E 37 48 20 26 1026.0 - 0.0
21/01:30am 14.7 8.5 11.5 81 1.8 E 35 46 19 25 1026.3 - 0.0
21/01:00am 14.7 8.5 11.3 80 1.9 E 35 46 19 25 1026.5 - 0.0
21/12:30am 14.5 8.2 11.1 80 1.9 E 35 46 19 25 1026.6 - 0.0
21/12:00am 14.6 8.3 11.2 80 1.9 E 35 44 19 24 1027.0 1024.8 0.0
 
Date/Time
EST
Tmp

°C
App
Tmp
°C
Dew
Point
°C
Rel
Hum
%
Delta-T

°C
Wind Press
QNH
hPa
Press
MSL
hPa
Rain
since
9 am
mm
Dir
 
Spd
km/h
Gust
km/h
Spd
kts
Gust
kts
20/11:30pm 14.4 8.1 11.2 81 1.8 E 35 44 19 24 1027.1 - 0.0
20/11:00pm 14.5 8.6 11.1 80 1.9 E 33 46 18 25 1027.3 - 0.0
20/10:30pm 14.8 8.5 11.2 79 2.0 E 35 50 19 27 1027.4 - 0.0
20/10:00pm 15.2 8.2 11.2 77 2.2 E 39 50 21 27 1027.3 - 0.0
20/09:30pm 15.7 8.7 11.1 74 2.5 E 39 50 21 27 1027.4 - 0.0
20/09:00pm 16.3 9.5 10.8 70 3.0 E 37 46 20 25 1027.4 1025.2 0.0
20/08:30pm 17.1 10.3 10.7 66 3.5 E 37 46 20 25 1027.4 - 0.0
20/08:00pm 17.9 12.4 10.5 62 4.1 E 30 43 16 23 1027.2 - 0.0
20/07:30pm 18.8 13.2 10.1 57 4.8 E 30 41 16 22 1026.7 - 0.0
20/07:00pm 20.0 14.3 9.9 52 5.6 E 30 39 16 21 1026.1 - 0.0
20/06:30pm 21.2 14.8 9.4 47 6.5 E 33 46 18 25 1025.4 - 0.0
20/06:00pm 22.9 17.3 8.6 40 7.8 E 28 39 15 21 1024.9 1022.7 0.0
20/05:30pm 24.0 18.3 8.4 37 8.6 E 28 37 15 20 1024.1 - 0.0
20/05:00pm 24.8 18.7 8.3 35 9.1 E 30 41 16 22 1023.9 - 0.0
20/04:30pm 25.0 19.3 8.5 35 9.1 E 28 35 15 19 1023.5 - 0.0
20/04:00pm 25.5 21.0 8.5 34 9.4 E 22 28 12 15 1023.5 - 0.0
20/03:30pm 25.8 22.1 9.6 36 9.2 E 19 28 10 15 1023.5 - 0.0
20/03:00pm 25.9 21.7 9.7 36 9.2 ESE 22 28 12 15 1023.4 1021.2 0.0
20/02:30pm 25.8 22.0 9.2 35 9.3 E 19 28 10 15 1023.5 - 0.0
20/02:00pm 26.1 22.3 9.0 34 9.6 ENE 19 24 10 13 1023.8 - 0.0
20/01:30pm 25.7 23.5 9.5 36 9.2 ESE 11 13 6 7 1024.2 - 0.0
20/01:00pm 26.5 25.2 9.8 35 9.5 ESE 7 15 4 8 1024.6 - 0.0
20/12:30pm 24.9 22.7 9.2 37 8.8 NE 11 20 6 11 1025.1 - 0.0
20/12:00pm 24.2 21.3 8.2 36 8.7 SW 13 20 7 11 1025.6 1023.4 0.0
20/11:30am 23.6 21.0 9.2 40 8.0 E 13 19 7 10 1026.1 - 0.0
20/11:00am 23.4 22.3 10.1 43 7.5 W 6 15 3 8 1026.6 - 0.0
20/10:30am 22.3 20.3 10.1 46 6.8 SE 11 17 6 9 1027.2 - 0.0
20/10:00am 20.8 19.1 9.7 49 6.1 E 9 13 5 7 1027.6 - 0.0
20/09:30am 20.2 19.0 10.3 53 5.5 ESE 7 13 4 7 1027.7 - 0.0
20/09:00am 18.3 16.6 9.9 58 4.6 ENE 9 13 5 7 1027.9 1025.7 0.0
20/08:30am 17.9 16.2 11.2 65 3.8 ENE 11 15 6 8 1027.9 - 0.0
20/08:00am 16.5 13.8 10.4 67 3.3 ENE 15 19 8 10 1027.6 - 0.0
20/07:30am 15.5 12.4 10.3 71 2.8 ENE 17 20 9 11 1027.6 - 0.0
20/07:00am 15.0 12.4 10.6 75 2.4 ENE 15 19 8 10 1027.4 - 0.0
20/06:30am 14.2 12.7 10.6 79 2.0 E 9 13 5 7 1027.2 - 0.0
20/06:00am 13.1 12.2 10.5 84 1.4 E 6 7 3 4 1026.7 1024.5 0.0
20/05:30am 11.9 9.8 9.8 87 1.1 ENE 11 15 6 8 1026.4 - 0.0
20/05:00am 11.9 8.7 9.8 87 1.1 E 17 19 9 10 1026.3 - 0.0
20/04:30am 11.9 8.1 9.8 87 1.1 E 20 24 11 13 1026.1 - 0.0
20/04:00am 12.0 8.2 9.7 86 1.2 E 20 24 11 13 1025.9 - 0.0
20/03:30am 12.2 8.0 9.8 85 1.3 E 22 28 12 15 1025.7 - 0.0
20/03:00am 12.2 7.2 9.6 84 1.4 E 26 32 14 17 1025.8 1023.6 0.0
20/02:30am 12.3 7.0 9.7 84 1.4 E 28 33 15 18 1025.9 - 0.0
20/02:00am 12.3 7.3 9.5 83 1.5 E 26 37 14 20 1026.0 - 0.0
20/01:30am 12.5 7.5 9.5 82 1.6 E 26 35 14 19 1026.3 - 0.0
20/01:00am 12.5 7.0 9.3 81 1.7 E 28 35 15 19 1026.5 - 0.0
20/12:30am 12.8 7.4 9.4 80 1.8 E 28 35 15 19 1027.0 - 0.0
20/12:00am 13.0 6.8 9.4 79 1.9 E 32 37 17 20 1027.2 1025.0 0.0
 
Date/Time
EST
Tmp

°C
App
Tmp
°C
Dew
Point
°C
Rel
Hum
%
Delta-T

°C
Wind Press
QNH
hPa
Press
MSL
hPa
Rain
since
9 am
mm
Dir
 
Spd
km/h
Gust
km/h
Spd
kts
Gust
kts
19/11:30pm 13.2 7.4 9.5 78 2.0 E 30 37 16 20 1027.6 - 0.0
19/11:00pm 13.3 7.5 9.4 77 2.1 E 30 35 16 19 1027.8 - 0.0
19/10:30pm 13.5 7.7 9.4 76 2.2 E 30 37 16 20 1027.9 - 0.0
19/10:00pm 13.7 7.6 9.6 76 2.2 E 32 37 17 20 1027.9 - 0.0
19/09:30pm 14.2 7.5 9.8 75 2.3 E 35 43 19 23 1027.7 - 0.0
19/09:00pm 14.7 8.1 10.1 74 2.5 E 35 43 19 23 1027.4 1025.2 0.0
19/08:30pm 15.3 9.2 10.3 72 2.7 E 33 46 18 25 1027.3 - 0.0
19/08:00pm 16.1 10.0 10.4 69 3.1 E 33 41 18 22 1027.0 - 0.0
19/07:30pm 17.1 11.2 10.5 65 3.6 E 32 41 17 22 1026.7 - 0.0
19/07:00pm 18.4 13.8 9.7 57 4.7 E 24 30 13 16 1026.5 - 0.0
19/06:30pm 19.8 15.2 5.8 40 7.2 E 19 24 10 13 1026.1 - 0.0
19/06:00pm 20.6 16.1 6.2 39 7.4 E 19 26 10 14 1025.8 1023.6 0.0
19/05:30pm 21.4 16.4 6.5 38 7.8 E 22 26 12 14 1025.4 - 0.0
19/05:00pm 22.2 17.8 7.2 38 8.0 E 20 26 11 14 1025.1 - 0.0
19/04:30pm 22.4 17.9 7.0 37 8.2 E 20 28 11 15 1024.9 - 0.0

Latest Capital City Observations: Canberra | Sydney | Melbourne | Brisbane | Adelaide | Perth | Hobart | Darwin

Other Formats:

Comma delimited format used in spreadsheet applications
http://www.bom.gov.au/fwo/IDQ60901/IDQ60901.95551.axf

JavaScript Object Notation format (JSON) in row-major order
http://www.bom.gov.au/fwo/IDQ60901/IDQ60901.95551.json